HK6REC-20 Weather Reports


time (UTC)temp
C
wind
direction
speed
KPH
gust
KPH
rain 1hr
cm
rain 24hr
cm
rain mn
cm
humidity
%
barometer
mb
20260507201821 22 124 1.6 1.6 0.00 0.00 0.00 72 1009.0
20260507195820 22 124 1.6 1.6 0.00 0.00 0.00 72 1009.0
20260507193819 22 124 3.2 3.2 0.00 0.00 0.00 72 1009.0
20260507191818 26 320 8.0 0.0 0.00 0.00 0.00 58 1010.0
20260507185817 26 320 8.0 0.0 0.00 0.00 0.00 61 1009.0
20260507183816 26 320 8.0 0.0 0.00 0.00 0.00 61 1010.0
20260507181815 26 320 8.0 0.0 0.00 0.00 0.00 61 1011.0
20260507175815 25 320 8.0 0.0 0.00 0.00 0.00 67 1011.0
20260507173814 24 320 8.0 0.0 0.00 0.00 0.00 68 1011.0
20260507171813 23 320 8.0 0.0 0.00 0.00 0.00 71 1013.0
20260507165812 23 320 8.0 0.0 0.00 0.00 0.00 70 1013.0
20260507163811 23 320 8.0 0.0 0.00 0.00 0.00 71 1013.0
20260507161810 23 320 8.0 0.0 0.00 0.00 0.00 73 1015.0
20260507155809 23 320 8.0 0.0 0.00 0.00 0.00 73 1014.0
20260507153808 20 120 8.0 0.0 0.00 0.00 0.00 81 1014.0
20260507151807 20 120 8.0 0.0 0.00 0.00 0.00 80 1016.0
20260507145806 20 120 8.0 0.0 0.00 0.00 0.00 79 1016.0
20260507143805 20 120 8.0 0.0 0.00 0.00 0.00 78 1016.0
20260507141804 20 120 8.0 0.0 0.00 0.00 0.00 77 1018.0
20260507135803 20 120 8.0 0.0 0.00 0.00 0.00 77 1016.0
20260507133802 18 120 8.0 0.0 0.00 0.00 0.00 75 1016.0
20260507131801 19 120 8.0 0.0 0.00 0.00 0.00 74 1018.0
20260507125800 20 120 8.0 0.0 0.00 0.00 0.00 73 1016.0
20260507123759 14 310 8.0 0.0 0.00 0.00 0.00 81 1016.0
20260507121758 14 310 8.0 0.0 0.00 0.00 0.00 81 1016.0
20260507115757 14 310 8.0 0.0 0.00 0.00 0.00 81 1016.0
20260507113756 14 310 8.0 0.0 0.00 0.00 0.00 81 1016.0
20260507111755 14 310 8.0 0.0 0.00 0.00 0.00 81 1017.0
20260507105754 14 310 8.0 0.0 0.00 0.00 0.00 81 1016.0
20260507103753 14 310 8.0 0.0 0.00 0.00 0.00 81 1016.0
20260507101752 14 310 8.0 0.0 0.00 0.00 0.00 80 1017.0
20260507095751 14 310 8.0 0.0 0.00 0.00 0.00 80 1015.0
20260507093750 14 310 8.0 0.0 0.00 0.00 0.00 80 1016.0
20260507091750 14 310 8.0 0.0 0.00 0.00 0.00 80 1016.0
20260507085749 15 310 8.0 0.0 0.00 0.00 0.00 80 1015.0
20260507083748 15 310 8.0 0.0 0.00 0.00 0.00 80 1015.0
20260507081747 15 310 8.0 0.0 0.00 0.00 0.00 80 1016.0
20260507075746 15 310 8.0 0.0 0.00 0.00 0.00 80 1015.0
20260507073745 15 310 8.0 0.0 0.00 0.00 0.00 80 1015.0
20260507071744 15 310 8.0 0.0 0.00 0.00 0.00 80 1016.0
20260507065743 15 310 8.0 0.0 0.00 0.00 0.00 80 1015.0
20260507063742 15 310 8.0 0.0 0.00 0.00 0.00 80 1016.0
20260507061741 15 310 8.0 0.0 0.00 0.00 0.00 79 1017.0
20260507055740 15 310 8.0 0.0 0.00 0.00 0.00 79 1016.0
20260507053739 15 310 8.0 0.0 0.00 0.00 0.00 79 1016.0
20260507051739 15 310 8.0 0.0 0.00 0.00 0.00 79 1017.0
20260507045738 15 310 8.0 0.0 0.00 0.00 0.00 79 1017.0
20260507043736 15 310 8.0 0.0 0.00 0.00 0.00 79 1017.0
20260507041736 15 310 8.0 0.0 0.00 0.00 0.00 79 1017.0
20260507035735 15 310 8.0 0.0 0.00 0.00 0.00 79 1017.0
20260507033733 15 310 8.0 0.0 0.00 0.00 0.00 79 1016.0
20260507031733 16 310 8.0 0.0 0.00 0.00 0.00 79 1016.0
20260507025732 16 310 8.0 0.0 0.00 0.00 0.00 79 1016.0
20260507023731 16 310 8.0 0.0 0.00 0.00 0.00 79 1016.0
20260507021730 17 310 8.0 0.0 0.00 0.00 0.00 79 1015.0
20260507015729 17 310 8.0 0.0 0.00 0.00 0.00 79 1015.0
20260507013728 17 310 8.0 0.0 0.00 0.00 0.00 79 1015.0
20260507011727 18 310 8.0 0.0 0.00 0.00 0.00 79 1014.0
20260507005726 18 310 8.0 0.0 0.00 0.00 0.00 79 1014.0
20260507003725 19 310 8.0 0.0 0.00 0.00 0.00 79 1014.0
20260507001724 20 310 8.0 0.0 0.00 0.00 0.00 79 1014.0
20260506235723 21 310 8.0 0.0 0.00 0.00 0.00 79 1013.0
20260506233722 21 310 8.0 0.0 0.00 0.00 0.00 79 1013.0
20260506231721 21 310 8.0 0.0 0.00 0.00 0.00 79 1012.0
20260506225720 21 310 8.0 0.0 0.00 0.00 0.00 79 1012.0
20260506223719 21 310 8.0 0.0 0.00 0.00 0.00 79 1012.0
20260506221718 21 310 8.0 0.0 0.00 0.00 0.00 78 1010.0
20260506215717 22 310 8.0 0.0 0.00 0.00 0.00 77 1010.0
20260506213716 22 310 8.0 0.0 0.00 0.00 0.00 76 1010.0
20260506211715 22 310 8.0 0.0 0.00 0.00 0.00 75 1010.0
20260506205715 23 310 8.0 0.0 0.00 0.00 0.00 74 1009.0
20260506203714 23 310 8.0 0.0 0.00 0.00 0.00 72 1009.0